Weather in Peresna

Russia / Smolensk Oblast     54°31′12″N   32°24′38″E
temp.,
°C
wind,
m/s
gust,
m/s
humid.,
%
clouds,
%
prec.,
mm/h
press.,
hPa
HPBL,
m
7 may, fri
fri700:00+3sw410892 0.0 1009208
03:00+2sw49890 0.0 1010184
06:00+2ssw498896 0.0 1011193
09:00+7ssw61071100 0.1 1011693
12:00+11sw8106266 0.9 10101659
15:00+13ssw71056100 1.7 10091852
18:00+11ssw61069100 0.6 1009851
21:00+8s61192100 3.0 1008957
8 may, sat
sat800:00+8sse71494100 4.6 1004802
03:00+9s4898100 4.7 1003444
06:00+8w3594100 0.3 1003224
09:00+9wnw568687 0.3 1003662
12:00+9nw677797 0.3 10041049
15:00+7nnw71079100 0.9 1006958
18:00+8nw61173100 0.6 10071147
21:00+4wnw6127866 0.7 1011482
9 may, sun
sun900:00+2w410865 0.0 1013218
03:00+2w512944 0.0 1016380
06:00+1nw412892 0.0 1019367
09:00+6nw47651 0.0 1021805
12:00+10nw56495 0.0 10221753
15:00+11nw564417 0.0 10232067
18:00+11nw23485 0.0 10241534
21:00+6sw22646 0.0 102610
10 may, mon
mon1000:00+5s336845 0.0 102831
03:00+4ssw347119 0.0 102957
06:00+4ssw35759 0.0 1030100
09:00+10ssw46635 0.0 1031404
12:00+14ssw45535 0.0 10301207
15:00+15ssw44492 0.0 10301412
18:00+15s23550 0.0 10291198
21:00+10s33772 0.0 103036
11 may, tue
tue1100:00+7s33730 0.0 103029
03:00+6sse33715 0.0 103139
06:00+6se22795 0.0 103137
09:00+12se456310 0.0 1031428
12:00+16se454717 0.0 10291129
15:00+18ese45445 0.0 10281384
18:00+17e46580 0.0 1027527
21:00+11ese410741 0.0 1027170